[[{"header":{"parameterUnit":"m.s-1","parameterCategory":2,"la1":30.2991,"la2":30.254,"lo1":-89.0895,"lo2":-89.0444,"dy":0.0017,"dx":0.0017,"nx":28,"ny":28,"refTime":"2024-06-30T03:00:00:Z","depth":"0","parameterNumber":2,"parameterNumberName":"U-component_of_CURRENTS"},"data":[0,0,0,0,0,0,0,0,0,0,0,0,0,0,0,0,0,0,0,0,0,0,0,0,0,0,0,0,0,0,0,0,0,0,0,0,0,0,0,0,0,0,0,0,0,0,0,0,0,0,0,0,0,0,0,0,0,0,0.1113,0.1113,0,0.1106,0.1106,0.1106,0.1092,0.1092,0.1092,0.1092,0.106,0.1059,0.1058,0,0,0,0,0,0,0,0,0,0,0,0,0,0.1069,0.107,0.1113,0.1113,0.1113,0.1106,0.1106,0.1106,0.1092,0.1092,0.1092,0.1092,0.106,0.1059,0.1058,0,0,0,0,0,0,0,0,0,0,0,0,0,0.1076,0.107,0.1113,0.1107,0.1106,0.1106,0.1106,0.1105,0.1092,0.1092,0.1092,0.1092,0.106,0.1059,0.1058,0.1056,0,0,0.1055,0.1054,0,0,0,0,0,0,0,0,0.1076,0.1078,0.1108,0.1107,0.1106,0.1101,0.1078,0.1088,0.1092,0.1096,0.1092,0.1091,0.1072,0.107,0.1068,0.1055,0.1053,0.1055,0.1054,0.1054,0.1053,0,0,0,0,0,0,0,0.1076,0.1078,0.1109,0.1108,0.1107,0.1088,0.1089,0.108,0.1084,0.1096,0.1095,0.1096,0.1071,0.1069,0.1067,0.1053,0.1055,0.1054,0.1053,0.1053,0.1074,0.1075,0,0,0,0,0,0,0.1082,0.1078,0.1109,0.1109,0.1092,0.1089,0.109,0.1102,0.1085,0.1083,0.1096,0.1096,0.1071,0.1068,0.1066,0.1106,0.1054,0.1053,0.1052,0.1072,0.1074,0.1075,0,0,0,0,0,0,0.1081,0.1085,0.111,0.1093,0.1095,0.1091,0.1103,0.1102,0.1102,0.1086,0.1083,0.1098,0.1071,0.1067,0.1073,0.1103,0.1052,0.1051,0.1071,0.1073,0.1075,0.1159,0,0,0,0,0,0,0.108,0.1085,0.1091,0.1094,0.1096,0.1115,0.1104,0.1102,0.1103,0.1102,0.1086,0.1083,0.107,0.1075,0.1072,0.1101,0.105,0.107,0.1072,0.1074,0.1155,0.1164,0.1171,0,0,0,0,0,0.1078,0.1085,0.1092,0.1095,0.1107,0.1116,0.1115,0.1109,0.1103,0.1107,0.1104,0.1083,0.1087,0.1075,0.1071,0.1101,0.1068,0.1071,0.1074,0.1151,0.1162,0.1171,0,0,0,0,0,0,0.105,0.1085,0.1092,0.1104,0.1114,0.1114,0.1113,0.1113,0.1113,0.1111,0.1096,0.1093,0.111,0.1091,0.1078,0.1113,0.1075,0.1077,0.1135,0.1145,0.1153,0.1166,0.1049,0,0,0,0,0,0.1053,0.1078,0.1097,0.1104,0.1113,0.1115,0.1116,0.1117,0.1119,0.1118,0.1113,0.111,0.1118,0.112,0.1116,0.1132,0.1154,0.1149,0.1157,0.1164,0.1172,0.1236,0.1252,0.1084,0.1084,0.1084,0,0,0.1039,0.1064,0.1072,0.1101,0.1107,0.1128,0.1115,0.1122,0.1142,0.1115,0.1135,0.1134,0.1127,0.1152,0.1158,0.1141,0.1229,0.1168,0.1174,0.1178,0.1241,0.1257,0.1272,0.1086,0.1086,0.1085,0,0,0.1032,0.1052,0.1075,0.1095,0.1119,0.1128,0.1135,0.1148,0.1156,0.1174,0.1171,0.1194,0.1187,0.1208,0.1213,0.1262,0.1268,0.1255,0.131,0.1373,0.1388,0.1401,0.1479,0.1498,0.1262,0.1263,0.1263,0,0.1009,0.1058,0.1077,0.1108,0.1133,0.1134,0.1166,0.1173,0.1186,0.1212,0.1187,0.1231,0.1219,0.1281,0.1297,0.1283,0.1322,0.1276,0.1387,0.14,0.1412,0.1488,0.1508,0.1267,0.1266,0.1266,0.1266,0,0.1034,0.1071,0.1084,0.114,0.1162,0.1187,0.1214,0.1237,0.1246,0.1263,0.1316,0.1314,0.1349,0.1349,0.1333,0.142,0.1423,0.139,0.1367,0.1435,0.151,0.1529,0.1273,0.1272,0.127,0.1269,0,0,0.0998,0.1087,0.1094,0.1144,0.1191,0.1218,0.1259,0.1314,0.1365,0.1369,0.1443,0.1453,0.1463,0.1469,0.1468,0.1513,0.1634,0.149,0.1492,0.1576,0.1798,0.1916,0.1949,0.1625,0.1628,0.1631,0.1827,0,0.1018,0.1095,0.1134,0.1209,0.1259,0.1294,0.1342,0.1388,0.1423,0.1489,0.1506,0.1561,0.1506,0.1543,0.158,0.1619,0.1685,0.1585,0.171,0.1715,0.1819,0.1975,0.2118,0.2315,0.1846,0.1849,0.1851,0,0.105,0.1106,0.1184,0.1293,0.1317,0.1356,0.1465,0.1511,0.1591,0.1618,0.1671,0.1683,0.176,0.1695,0.1813,0.1755,0.1788,0.1808,0.1816,0.1908,0.187,0.2165,0.2368,0.2404,0.1881,0.1879,0.1877,0,0.1061,0.1154,0.1228,0.1261,0.1362,0.1413,0.1471,0.1555,0.1614,0.1717,0.1772,0.184,0.1902,0.194,0.1977,0.191,0.2112,0.2025,0.2169,0.2177,0.2316,0.2332,0.2577,0.2126,0.2125,0.2125,0.2124,0,0.1098,0.1162,0.1243,0.1287,0.1378,0.145,0.1551,0.1614,0.1718,0.1813,0.1848,0.1943,0.1966,0.2067,0.2064,0.2218,0.2194,0.2234,0.2258,0.2352,0.2368,0.2412,0.2287,0.2132,0.213,0.2129,0.2128,0,0.1118,0.1168,0.1255,0.1357,0.1388,0.146,0.1578,0.1661,0.1759,0.1891,0.1932,0.2057,0.2221,0.2265,0.2371,0.2374,0.2449,0.2518,0.2642,0.2678,0.2829,0.2699,0.2655,0.2565,0.2729,0.2733,0.2737,0,0.1144,0.1189,0.1282,0.1323,0.1371,0.1472,0.1545,0.1659,0.175,0.1964,0.204,0.2244,0.2395,0.263,0.2727,0.2849,0.2647,0.3007,0.2899,0.2929,0.28,0.2489,0.2389,0.3122,0.3128,0.3134,0.3138,0,0.1184,0.1205,0.1265,0.1335,0.141,0.1498,0.1616,0.1691,0.1859,0.1992,0.2218,0.237,0.2676,0.2922,0.3107,0.3158,0.2931,0.3122,0.3132,0.3139,0.2834,0.2731,0.2885,0.3186,0.3181,0.3178,0.3175,0.3173,0.1196,0.1227,0.1283,0.1353,0.1427,0.1529,0.1606,0.1758,0.1922,0.2157,0.232,0.2601,0.3,0.3321,0.339,0.3641,0.3257,0.362,0.3467,0.3155,0.3049,0.3325,0.365,0.3648,0.3646,0.3644,0.3643,0,0.1207,0.1237,0.1299,0.1373,0.1434,0.149,0.1651,0.1744,0.1942,0.2223,0.2448,0.2961,0.3351,0.3643,0.4032,0.4026,0.3743,0.3929,0.3562,0.3444,0.3781,0.3793,0.419,0.419,0.419,0.419,0.419,0.419,0.1214,0.1252,0.1279,0.1354,0.1408,0.1493,0.1583,0.1757,0.1967,0.2346,0.2663,0.2914,0.3406,0.3982,0.4275,0.4227,0.3864,0.3751,0.3499,0.385,0.3809,0.3769,0.3765,0.4149,0.4149,0.3175,0.3168,0.3162]},{"header":{"parameterUnit":"m.s-1","parameterCategory":2,"la1":30.2991,"la2":30.254,"lo1":-89.0895,"lo2":-89.0444,"dy":0.0017,"dx":0.0017,"nx":28,"ny":28,"refTime":"2024-06-30T03:00:00:Z","depth":"0","parameterNumber":3,"parameterNumberName":"V-component_of_CURRENTS"},"data":[0,0,0,0,0,0,0,0,0,0,0,0,0,0,0,0,0,0,0,0,0,0,0,0,0,0,0,0,0,0,0,0,0,0,0,0,0,0,0,0,0,0,0,0,0,0,0,0,0,0,0,0,0,0,0,0,0,0,-0.1241,-0.1242,0,-0.1347,-0.1348,-0.1349,-0.1422,-0.1423,-0.1423,-0.1423,-0.1574,-0.1577,-0.1581,0,0,0,0,0,0,0,0,0,0,0,0,0,-0.1164,-0.1165,-0.1241,-0.1242,-0.1243,-0.1346,-0.1348,-0.135,-0.1422,-0.1423,-0.1423,-0.1424,-0.1572,-0.1577,-0.1581,0,0,0,0,0,0,0,0,0,0,0,0,0,-0.1227,-0.1165,-0.124,-0.1291,-0.1296,-0.1346,-0.1348,-0.135,-0.1422,-0.1423,-0.1423,-0.1424,-0.1571,-0.1576,-0.1582,-0.1603,0,0,-0.1598,-0.1601,0,0,0,0,0,0,0,0,-0.1224,-0.123,-0.1282,-0.1287,-0.1293,-0.1371,-0.1376,-0.1436,-0.1422,-0.1376,-0.1423,-0.1424,-0.1508,-0.1519,-0.1539,-0.161,-0.1616,-0.1599,-0.1602,-0.1604,-0.1606,0,0,0,0,0,0,0,-0.1219,-0.1226,-0.1284,-0.1283,-0.129,-0.1329,-0.1338,-0.1388,-0.1439,-0.138,-0.1385,-0.1394,-0.1512,-0.1534,-0.1543,-0.1619,-0.1598,-0.1603,-0.1607,-0.1609,-0.1735,-0.1735,0,0,0,0,0,0,-0.1199,-0.1222,-0.1281,-0.1287,-0.1258,-0.133,-0.134,-0.1346,-0.1438,-0.1452,-0.1394,-0.1397,-0.1524,-0.1537,-0.1549,-0.1588,-0.1604,-0.1609,-0.1612,-0.1735,-0.1735,-0.1735,0,0,0,0,0,0,-0.1197,-0.1203,-0.1276,-0.1256,-0.1268,-0.133,-0.1337,-0.1348,-0.1376,-0.1448,-0.1463,-0.141,-0.1525,-0.1541,-0.1601,-0.1594,-0.1612,-0.1617,-0.1735,-0.1735,-0.1735,-0.1661,0,0,0,0,0,0,-0.1194,-0.1202,-0.1203,-0.1254,-0.1268,-0.1304,-0.1336,-0.135,-0.138,-0.1386,-0.1467,-0.1481,-0.1527,-0.1593,-0.1606,-0.1602,-0.1621,-0.1735,-0.1735,-0.1735,-0.1663,-0.1659,-0.1654,0,0,0,0,0,-0.1191,-0.1186,-0.1202,-0.121,-0.1267,-0.1303,-0.1314,-0.1362,-0.138,-0.139,-0.1449,-0.1479,-0.1603,-0.1597,-0.1614,-0.161,-0.1735,-0.1735,-0.1735,-0.1665,-0.1659,-0.1655,0,0,0,0,0,0,-0.1154,-0.1195,-0.1213,-0.1222,-0.1258,-0.1315,-0.1329,-0.1359,-0.1412,-0.1421,-0.1488,-0.1507,-0.1554,-0.1595,-0.1587,-0.1647,-0.1671,-0.1674,-0.1612,-0.1607,-0.1603,-0.1558,-0.1625,0,0,0,0,0,-0.1144,-0.1152,-0.1198,-0.1205,-0.1221,-0.1275,-0.1297,-0.1326,-0.1377,-0.1402,-0.1455,-0.1514,-0.1566,-0.1597,-0.1647,-0.1685,-0.1707,-0.1692,-0.1687,-0.1683,-0.1658,-0.1698,-0.1694,-0.1736,-0.1736,-0.1736,0,0,-0.1127,-0.1154,-0.1156,-0.1197,-0.1231,-0.124,-0.129,-0.1318,-0.1326,-0.141,-0.1442,-0.1503,-0.1573,-0.1614,-0.1638,-0.1649,-0.1684,-0.1684,-0.1679,-0.1656,-0.1698,-0.1693,-0.169,-0.1736,-0.1736,-0.1736,0,0,-0.1088,-0.1125,-0.1113,-0.1141,-0.1185,-0.122,-0.1224,-0.1279,-0.1307,-0.1346,-0.1407,-0.146,-0.1537,-0.1584,-0.1618,-0.162,-0.1659,-0.164,-0.1583,-0.1623,-0.1619,-0.1616,-0.1634,-0.1633,-0.1638,-0.1638,-0.1638,0,-0.1063,-0.1056,-0.1116,-0.1115,-0.1123,-0.1202,-0.1184,-0.1231,-0.1296,-0.131,-0.1344,-0.1449,-0.1516,-0.156,-0.1564,-0.1607,-0.1629,-0.1596,-0.1614,-0.1612,-0.161,-0.163,-0.163,-0.1634,-0.1635,-0.1635,-0.1636,0,-0.1013,-0.1011,-0.101,-0.1029,-0.1053,-0.1054,-0.1115,-0.1144,-0.1187,-0.1227,-0.1279,-0.1374,-0.143,-0.1468,-0.1519,-0.1542,-0.1561,-0.1603,-0.162,-0.1601,-0.1623,-0.1625,-0.1629,-0.1631,-0.1632,-0.1633,0,0,-0.0916,-0.0962,-0.0952,-0.0943,-0.1001,-0.1005,-0.1031,-0.1061,-0.1062,-0.1145,-0.1145,-0.1254,-0.1307,-0.1348,-0.1428,-0.1469,-0.1487,-0.1522,-0.1526,-0.1525,-0.1556,-0.1559,-0.1561,-0.1535,-0.1535,-0.1535,-0.1575,0,-0.0844,-0.0814,-0.0858,-0.0819,-0.0805,-0.0881,-0.0887,-0.0934,-0.0992,-0.1023,-0.1129,-0.117,-0.1264,-0.1291,-0.1349,-0.146,-0.1488,-0.1471,-0.1587,-0.159,-0.1583,-0.1562,-0.1483,-0.1511,-0.1577,-0.1577,-0.1577,0,-0.0753,-0.0748,-0.0699,-0.07,-0.0698,-0.069,-0.0706,-0.0728,-0.0812,-0.0855,-0.0931,-0.1025,-0.1115,-0.1189,-0.1343,-0.133,-0.142,-0.1502,-0.1507,-0.1529,-0.1595,-0.1544,-0.1511,-0.1607,-0.158,-0.1579,-0.1579,0,-0.0632,-0.0619,-0.0572,-0.0576,-0.0605,-0.0585,-0.0599,-0.0664,-0.0677,-0.0752,-0.077,-0.0899,-0.0962,-0.1099,-0.1294,-0.1314,-0.145,-0.1505,-0.1582,-0.1583,-0.1546,-0.1543,-0.1602,-0.1575,-0.1575,-0.1574,-0.1574,0,-0.0529,-0.0481,-0.0508,-0.0483,-0.0418,-0.047,-0.0428,-0.0468,-0.0519,-0.0528,-0.0673,-0.071,-0.0943,-0.1073,-0.1239,-0.1413,-0.1412,-0.1549,-0.159,-0.1519,-0.1514,-0.1622,-0.1715,-0.1576,-0.1576,-0.1575,-0.1575,0,-0.041,-0.0427,-0.0374,-0.0375,-0.0366,-0.032,-0.0327,-0.0311,-0.0366,-0.0384,-0.0403,-0.0568,-0.0734,-0.096,-0.1184,-0.1333,-0.1561,-0.1557,-0.1449,-0.1475,-0.1636,-0.1728,-0.1836,-0.1917,-0.1636,-0.1637,-0.1637,0,-0.035,-0.0314,-0.0292,-0.0258,-0.0254,-0.021,-0.0187,-0.0228,-0.0233,-0.0304,-0.0309,-0.0456,-0.0564,-0.0885,-0.1161,-0.1416,-0.1556,-0.1505,-0.1532,-0.1612,-0.1745,-0.1801,-0.1866,-0.1454,-0.1453,-0.1452,-0.1451,0,-0.0244,-0.0242,-0.0216,-0.0156,-0.0112,-0.0068,-0.0047,-0.0022,-0.008,-0.0091,-0.014,-0.0213,-0.0519,-0.0739,-0.1079,-0.1279,-0.1564,-0.1492,-0.1603,-0.162,-0.1654,-0.1761,-0.1457,-0.1441,-0.1442,-0.1443,-0.1444,-0.1444,-0.0174,-0.0136,-0.0113,-0.0053,-0.0002,0.0062,0.012,0.0129,0.0157,0.0183,0.0057,0.0071,-0.0253,-0.0712,-0.1057,-0.1462,-0.1532,-0.1547,-0.1655,-0.1704,-0.1772,-0.1437,-0.1458,-0.1459,-0.1459,-0.146,-0.1461,0,-0.01,-0.0071,-0.0011,0.006,0.0133,0.0135,0.0202,0.0276,0.0341,0.041,0.0403,0.0408,-0.0011,-0.0462,-0.1019,-0.1452,-0.1677,-0.1702,-0.1751,-0.1818,-0.1521,-0.1501,-0.1495,-0.1495,-0.1495,-0.1495,-0.1495,-0.1495,-0.006,-0.0004,0.0017,0.0153,0.0215,0.0329,0.0383,0.0502,0.0599,0.083,0.0985,0.1038,0.0883,-0.0306,-0.1171,-0.1519,-0.1832,-0.196,-0.215,-0.1919,-0.1912,-0.1905,-0.1905,-0.1984,-0.1984,-0.2352,-0.2355,-0.2358]}],[{"header":{"parameterUnit":"m.s-1","parameterCategory":2,"la1":30.2991,"la2":30.254,"lo1":-89.0895,"lo2":-89.0444,"dy":0.0017,"dx":0.0017,"nx":28,"ny":28,"refTime":"2024-06-30T03:00:00:Z","depth":"2","parameterNumber":2,"parameterNumberName":"U-component_of_CURRENTS"},"data":[0,0,0,0,0,0,0,0,0,0,0,0,0,0,0,0,0,0,0,0,0,0,0,0,0,0,0,0,0,0,0,0,0,0,0,0,0,0,0,0,0,0,0,0,0,0,0,0,0,0,0,0,0,0,0,0,0,0,0.2142,0.2143,0,0.22,0.2201,0.2201,0.2173,0.2172,0.2171,0.217,0.2194,0.2196,0.2198,0,0,0,0,0,0,0,0,0,0,0,0,0,0.2037,0.2039,0.2142,0.2143,0.2144,0.22,0.2201,0.2201,0.2173,0.2172,0.217,0.2169,0.2194,0.2196,0.2198,0,0,0,0,0,0,0,0,0,0,0,0,0,0.2085,0.2039,0.2142,0.2139,0.214,0.22,0.2201,0.2201,0.2174,0.2172,0.217,0.2168,0.2193,0.2196,0.2198,0.2252,0,0,0.2207,0.2208,0,0,0,0,0,0,0,0,0.2082,0.2088,0.2138,0.2139,0.214,0.218,0.2173,0.2218,0.2174,0.2158,0.2169,0.2167,0.219,0.2192,0.2204,0.2253,0.2254,0.2207,0.2208,0.221,0.221,0,0,0,0,0,0,0,0.2079,0.2086,0.2162,0.214,0.2141,0.2145,0.2149,0.2181,0.2181,0.2159,0.2158,0.2169,0.2189,0.2201,0.2204,0.2255,0.2207,0.2209,0.2211,0.2212,0.2355,0.2357,0,0,0,0,0,0,0.2078,0.2083,0.2161,0.2164,0.2109,0.2149,0.2153,0.2167,0.2181,0.2182,0.2171,0.2168,0.2198,0.2201,0.2205,0.2275,0.221,0.2212,0.2214,0.2353,0.2355,0.2358,0,0,0,0,0,0,0.2076,0.2085,0.2158,0.2127,0.2137,0.2152,0.2168,0.2169,0.217,0.2191,0.219,0.217,0.2196,0.2201,0.2237,0.2275,0.2213,0.2216,0.235,0.2354,0.2357,0.241,0,0,0,0,0,0,0.2072,0.2083,0.2089,0.2127,0.2139,0.219,0.217,0.2172,0.2182,0.2179,0.2191,0.2192,0.2195,0.2233,0.224,0.2277,0.2218,0.2348,0.2352,0.2356,0.2406,0.2415,0.2423,0,0,0,0,0,0.2069,0.2083,0.2089,0.2099,0.2147,0.2192,0.2198,0.22,0.2184,0.2192,0.2205,0.219,0.2264,0.2237,0.2245,0.2284,0.2346,0.2351,0.2355,0.2402,0.2413,0.2423,0,0,0,0,0,0,0.2035,0.2084,0.209,0.2117,0.2151,0.2187,0.2197,0.2202,0.222,0.2209,0.2218,0.2222,0.2278,0.2273,0.2244,0.2339,0.2303,0.231,0.2336,0.2347,0.2355,0.2359,0.222,0,0,0,0,0,0.2035,0.2059,0.2105,0.2125,0.2143,0.217,0.2186,0.2191,0.2216,0.2219,0.2227,0.2251,0.2309,0.2317,0.2357,0.2399,0.2437,0.243,0.2439,0.2446,0.2456,0.2557,0.2576,0.2374,0.2374,0.2374,0,0,0.2023,0.2057,0.2067,0.212,0.2143,0.2179,0.2173,0.2198,0.2228,0.2223,0.225,0.2286,0.2332,0.2391,0.2413,0.2384,0.2527,0.2452,0.2458,0.2464,0.2564,0.2584,0.2602,0.2377,0.2377,0.2376,0,0,0.2021,0.2048,0.2067,0.2101,0.2145,0.2175,0.2183,0.2217,0.223,0.2272,0.2296,0.2357,0.2394,0.2455,0.2491,0.2572,0.2581,0.257,0.2602,0.27,0.2718,0.2734,0.2818,0.2841,0.2558,0.2559,0.2559,0,0.1997,0.2041,0.2078,0.2111,0.2141,0.2175,0.2204,0.224,0.2277,0.2308,0.228,0.2407,0.244,0.256,0.2586,0.2595,0.2636,0.2556,0.2712,0.2728,0.2744,0.2826,0.285,0.2562,0.2561,0.2561,0.2561,0,0.202,0.205,0.2067,0.2125,0.2163,0.2194,0.2254,0.2287,0.2304,0.2343,0.244,0.2497,0.2568,0.26,0.2616,0.2749,0.274,0.2724,0.2683,0.2767,0.2849,0.2873,0.2566,0.2565,0.2564,0.2563,0,0,0.1967,0.2061,0.2061,0.2095,0.2171,0.2205,0.2274,0.2356,0.241,0.245,0.2532,0.2642,0.266,0.2704,0.2743,0.2824,0.2977,0.2807,0.2811,0.2886,0.3186,0.3141,0.3163,0.2978,0.2982,0.2985,0.3203,0,0.1965,0.2027,0.2078,0.2135,0.2177,0.2242,0.2306,0.2383,0.2451,0.2537,0.2627,0.2716,0.2705,0.2747,0.2832,0.2954,0.3042,0.2919,0.3097,0.3103,0.3049,0.319,0.2683,0.283,0.3227,0.3231,0.3234,0,0.197,0.2016,0.2068,0.2161,0.2182,0.2215,0.2334,0.2401,0.2544,0.2598,0.27,0.2762,0.2915,0.2878,0.3112,0.3026,0.311,0.3187,0.3197,0.3151,0.3103,0.281,0.286,0.3275,0.3272,0.3269,0.3266,0,0.1936,0.201,0.2052,0.2081,0.2188,0.2216,0.2274,0.2405,0.2487,0.2643,0.2714,0.2873,0.2968,0.3101,0.3239,0.3187,0.3486,0.3437,0.348,0.3477,0.3081,0.3036,0.3608,0.3608,0.3608,0.3607,0.3606,0,0.194,0.1971,0.2028,0.2056,0.2106,0.2182,0.2266,0.2354,0.25,0.2611,0.2729,0.2847,0.3026,0.3196,0.3298,0.3476,0.3538,0.353,0.3549,0.3087,0.3043,0.3441,0.3419,0.3615,0.3613,0.3612,0.361,0,0.1923,0.1961,0.201,0.2081,0.2097,0.2133,0.2247,0.2318,0.2452,0.2608,0.2659,0.2876,0.3095,0.3269,0.3523,0.3558,0.3729,0.3766,0.3214,0.3165,0.3638,0.3616,0.3858,0.3859,0.3859,0.386,0.386,0,0.1937,0.1954,0.2006,0.2016,0.2041,0.2099,0.2144,0.2281,0.2371,0.262,0.2693,0.294,0.3095,0.3444,0.347,0.3642,0.3803,0.3367,0.3196,0.368,0.3674,0.3651,0.3629,0.2688,0.2679,0.2671,0.2665,0,0.1951,0.1948,0.1979,0.1993,0.2014,0.2069,0.2139,0.2209,0.2387,0.2522,0.2717,0.2856,0.3063,0.3011,0.3219,0.325,0.3295,0.3227,0.3883,0.272,0.2599,0.2586,0.2598,0.2598,0.2604,0.2609,0.2613,0.2616,0.1939,0.1943,0.1951,0.1964,0.1979,0.201,0.2045,0.2152,0.2285,0.2429,0.2615,0.2638,0.2636,0.2666,0.2729,0.2739,0.2966,0.2852,0.2865,0.2888,0.2731,0.2619,0.2591,0.2598,0.2603,0.2608,0.2613,0,0.1917,0.1907,0.1921,0.1924,0.1912,0.1934,0.2017,0.2043,0.2154,0.2203,0.2327,0.204,0.201,0.2091,0.1925,0.2052,0.1933,0.2074,0.1815,0.1876,0.1933,0.1721,0.1318,0.1317,0.1316,0.1315,0,0,0.1901,0.1884,0.1885,0.1843,0.1828,0.1798,0.182,0.1874,0.1876,0.1814,0.1683,0.1777,0.1808,0.1454,0.148,0.1376,0.1623,0.1323,0.2305,0.2038,0.2094,0.228,0.2011,0,0,0,0,0]},{"header":{"parameterUnit":"m.s-1","parameterCategory":2,"la1":30.2991,"la2":30.254,"lo1":-89.0895,"lo2":-89.0444,"dy":0.0017,"dx":0.0017,"nx":28,"ny":28,"refTime":"2024-06-30T03:00:00:Z","depth":"2","parameterNumber":3,"parameterNumberName":"V-component_of_CURRENTS"},"data":[0,0,0,0,0,0,0,0,0,0,0,0,0,0,0,0,0,0,0,0,0,0,0,0,0,0,0,0,0,0,0,0,0,0,0,0,0,0,0,0,0,0,0,0,0,0,0,0,0,0,0,0,0,0,0,0,0,0,0.0586,0.0585,0,0.0515,0.0514,0.0513,0.0453,0.0452,0.0451,0.0451,0.0296,0.0292,0.0289,0,0,0,0,0,0,0,0,0,0,0,0,0,0.0647,0.0646,0.0586,0.0585,0.0584,0.0515,0.0514,0.0513,0.0453,0.0452,0.0451,0.0451,0.0297,0.0293,0.0288,0,0,0,0,0,0,0,0,0,0,0,0,0,0.0602,0.0646,0.0586,0.0547,0.0542,0.0515,0.0514,0.0512,0.0453,0.0452,0.0451,0.045,0.0298,0.0293,0.0288,0.0272,0,0,0.0271,0.0269,0,0,0,0,0,0,0,0,0.0604,0.0599,0.0553,0.0549,0.0545,0.0492,0.0478,0.0428,0.0453,0.0486,0.0451,0.045,0.0355,0.0345,0.0333,0.0264,0.0258,0.0271,0.0267,0.0265,0.0264,0,0,0,0,0,0,0,0.0608,0.0602,0.0557,0.0552,0.0547,0.0525,0.0518,0.0469,0.0424,0.0483,0.0479,0.0473,0.0352,0.0339,0.0329,0.0255,0.0271,0.0266,0.0263,0.0261,0.0141,0.0141,0,0,0,0,0,0,0.062,0.0605,0.0559,0.0555,0.0574,0.0525,0.0516,0.0509,0.0426,0.0413,0.0473,0.047,0.0348,0.0335,0.0323,0.0298,0.0265,0.026,0.0257,0.0141,0.0141,0.0141,0,0,0,0,0,0,0.0622,0.0617,0.0562,0.0579,0.0571,0.0525,0.0517,0.0508,0.0498,0.042,0.0405,0.0472,0.0347,0.0331,0.0281,0.0291,0.0258,0.0253,0.0141,0.0141,0.0141,0.0248,0,0,0,0,0,0,0.0624,0.0618,0.0625,0.058,0.057,0.0561,0.0518,0.0508,0.0496,0.0491,0.0414,0.0398,0.0345,0.029,0.0276,0.0283,0.0249,0.0141,0.0141,0.0141,0.0245,0.0252,0.0258,0,0,0,0,0,0.0627,0.0639,0.0625,0.062,0.0578,0.0562,0.0555,0.0518,0.0497,0.0504,0.0442,0.0401,0.028,0.0286,0.0269,0.0276,0.0141,0.0141,0.0141,0.0242,0.0251,0.0258,0,0,0,0,0,0,0.067,0.0633,0.0617,0.0618,0.0599,0.0552,0.0556,0.0529,0.0488,0.0478,0.0402,0.0383,0.0346,0.0293,0.0301,0.024,0.0204,0.0201,0.0286,0.0293,0.03,0.0318,0.0244,0,0,0,0,0,0.0684,0.0682,0.0646,0.0649,0.0644,0.0603,0.0593,0.0568,0.0524,0.0506,0.0444,0.038,0.0334,0.0301,0.0251,0.0216,0.0171,0.0208,0.0215,0.0221,0.0223,0.0165,0.0167,0.0142,0.0142,0.0142,0,0,0.07,0.0682,0.068,0.0659,0.064,0.0637,0.0595,0.0588,0.0578,0.0494,0.0458,0.0405,0.0332,0.0296,0.0274,0.0252,0.0207,0.0221,0.0228,0.0226,0.0165,0.0168,0.017,0.0142,0.0142,0.0142,0,0,0.0731,0.072,0.0726,0.0718,0.0698,0.0673,0.0676,0.0631,0.0609,0.0574,0.0511,0.0467,0.0386,0.0339,0.0305,0.0318,0.0251,0.0297,0.0339,0.0283,0.0285,0.0286,0.025,0.0246,0.0294,0.0294,0.0294,0,0.0751,0.0751,0.0729,0.0736,0.0731,0.0694,0.07,0.0679,0.0619,0.0601,0.0575,0.0467,0.041,0.0367,0.0369,0.0336,0.0293,0.0319,0.0294,0.0294,0.0293,0.0255,0.025,0.0299,0.0298,0.0298,0.0297,0,0.0778,0.0785,0.0793,0.0784,0.0783,0.0785,0.0755,0.0741,0.0707,0.0673,0.0629,0.0553,0.0483,0.0465,0.0419,0.0385,0.0355,0.0319,0.0281,0.0303,0.0261,0.0254,0.0306,0.0305,0.0303,0.0302,0,0,0.0789,0.0807,0.0807,0.0816,0.0807,0.0804,0.0804,0.0785,0.0781,0.0726,0.0711,0.0635,0.0587,0.0545,0.0482,0.0437,0.0405,0.0378,0.0373,0.0356,0.0289,0.0304,0.0297,0.0359,0.0358,0.0357,0.0269,0,0.0809,0.0838,0.0836,0.086,0.0871,0.0853,0.0853,0.0835,0.0812,0.079,0.0726,0.0681,0.062,0.0584,0.0534,0.0439,0.0388,0.0433,0.0257,0.0253,0.0274,0.029,0.0216,0.0134,0.0262,0.0261,0.026,0,0.0819,0.0839,0.087,0.0894,0.0896,0.0901,0.09,0.0898,0.0873,0.0855,0.0812,0.0754,0.0685,0.0628,0.0482,0.051,0.0404,0.0333,0.0327,0.0296,0.0254,0.0126,0.0116,0.0248,0.0249,0.025,0.025,0,0.0822,0.0855,0.0882,0.089,0.0911,0.0915,0.0917,0.0908,0.0924,0.0888,0.0894,0.0801,0.0756,0.0622,0.0476,0.0465,0.0325,0.0286,0.02,0.02,0.0081,0.0073,0.017,0.017,0.017,0.017,0.017,0,0.0833,0.0853,0.0883,0.0898,0.0932,0.0929,0.096,0.0955,0.0964,0.1004,0.0917,0.093,0.0748,0.0651,0.0503,0.0348,0.0334,0.0214,0.0177,0.0119,0.0116,0.0162,0.0162,0.0167,0.0168,0.0168,0.0169,0,0.0837,0.0855,0.0895,0.0925,0.0938,0.0959,0.101,0.1039,0.1029,0.1082,0.1071,0.1015,0.0897,0.0718,0.0514,0.0391,0.0231,0.0166,0.0129,0.0091,0.0136,0.0142,0.0069,0.0068,0.0068,0.0068,0.0068,0,0.0847,0.0865,0.0924,0.0959,0.0976,0.1014,0.1052,0.1069,0.112,0.1153,0.119,0.1094,0.1086,0.081,0.0527,0.0271,0.0238,0.004,0.001,0.0153,0.0124,0.0131,0.0138,-0.0112,-0.0114,-0.0115,-0.0116,0,0.0871,0.0888,0.0928,0.1004,0.1052,0.1124,0.118,0.1232,0.127,0.1325,0.1388,0.1386,0.1126,0.0834,0.0478,0.0304,0.0082,0.001,0.0133,-0.0049,-0.0018,-0.0045,-0.0033,-0.0128,-0.0127,-0.0126,-0.0125,-0.0125,0.089,0.0928,0.0984,0.1056,0.1127,0.1223,0.1286,0.1368,0.1471,0.1563,0.1564,0.1478,0.113,0.0621,0.0345,0.001,0.0066,-0.0103,-0.01,-0.0095,-0.0074,-0.0042,-0.0153,-0.0152,-0.0151,-0.015,-0.015,0,0.0911,0.0961,0.1035,0.1128,0.1215,0.1252,0.1372,0.1437,0.1573,0.1599,0.1679,0.1226,0.0938,0.0529,0.0016,-0.0194,-0.0223,-0.0286,-0.0321,-0.0308,-0.0297,-0.0287,-0.0423,-0.0424,-0.0425,-0.0425,0,0,0.0923,0.0989,0.1033,0.1181,0.1259,0.1382,0.1458,0.1562,0.1567,0.155,0.1408,0.1399,0.0859,0.0415,0.0097,-0.0191,-0.0181,-0.0227,0.0009,0.0017,0.0031,-0.0183,-0.0151,0,0,0,0,0]}],[{"header":{"parameterUnit":"m.s-1","parameterCategory":2,"la1":30.2991,"la2":30.254,"lo1":-89.0895,"lo2":-89.0444,"dy":0.0017,"dx":0.0017,"nx":28,"ny":28,"refTime":"2024-06-30T03:00:00:Z","depth":"4","parameterNumber":2,"parameterNumberName":"U-component_of_CURRENTS"},"data":[0,0,0,0,0,0,0,0,0,0,0,0,0,0,0,0,0,0,0,0,0,0,0,0,0,0,0,0,0,0,0,0,0,0,0,0,0,0,0,0,0,0,0,0,0,0,0,0,0,0,0,0,0,0,0,0,0,0,0.0754,0.0754,0,0.0808,0.0809,0.081,0.0871,0.0872,0.0873,0.0874,0.097,0.0972,0.0974,0,0,0,0,0,0,0,0,0,0,0,0,0,0.0702,0.0702,0.0754,0.0754,0.0755,0.0808,0.0809,0.081,0.0871,0.0872,0.0873,0.0874,0.097,0.0972,0.0974,0,0,0,0,0,0,0,0,0,0,0,0,0,0.0737,0.0702,0.0754,0.0792,0.0796,0.0808,0.0809,0.081,0.0871,0.0872,0.0873,0.0874,0.0969,0.0972,0.0974,0.0964,0,0,0.0982,0.0983,0,0,0,0,0,0,0,0,0.0735,0.0739,0.0785,0.0789,0.0794,0.0834,0.0826,0.0864,0.087,0.0842,0.0874,0.0875,0.0927,0.0934,0.0941,0.0969,0.0973,0.0982,0.0984,0.0985,0.0986,0,0,0,0,0,0,0,0.0733,0.0737,0.0776,0.0786,0.0791,0.0806,0.0812,0.0833,0.0878,0.0845,0.0849,0.0855,0.093,0.0938,0.0944,0.0974,0.0982,0.0985,0.0986,0.0987,0.1108,0.111,0,0,0,0,0,0,0.0724,0.0735,0.0774,0.0777,0.0767,0.0806,0.0813,0.082,0.0877,0.0886,0.0853,0.0857,0.0933,0.094,0.0947,0.1046,0.0985,0.0988,0.0989,0.1107,0.1109,0.1111,0,0,0,0,0,0,0.0722,0.0727,0.0772,0.0757,0.0764,0.0805,0.0812,0.082,0.0862,0.0883,0.0894,0.0891,0.0934,0.0944,0.0981,0.1047,0.0989,0.0991,0.1105,0.1107,0.111,0.1176,0,0,0,0,0,0,0.0721,0.0726,0.0742,0.0756,0.0764,0.0787,0.0811,0.082,0.0861,0.0867,0.0918,0.0926,0.0936,0.0977,0.0984,0.1049,0.0993,0.1103,0.1106,0.1109,0.1172,0.118,0.1188,0,0,0,0,0,0.0719,0.0731,0.0742,0.0748,0.078,0.0787,0.0793,0.0827,0.0862,0.0872,0.0909,0.0926,0.1003,0.098,0.0987,0.1055,0.1101,0.1105,0.1109,0.1168,0.1178,0.1187,0,0,0,0,0,0,0.0714,0.0739,0.0751,0.0771,0.0782,0.0798,0.0824,0.0844,0.0881,0.0904,0.093,0.0939,0.101,0.1009,0.0983,0.1098,0.1063,0.1068,0.1105,0.1115,0.1123,0.1141,0.0996,0,0,0,0,0,0.0718,0.0739,0.0752,0.0768,0.0783,0.081,0.0826,0.0843,0.0871,0.0892,0.0945,0.099,0.1025,0.1049,0.1084,0.1127,0.1112,0.1181,0.1189,0.1196,0.1215,0.1208,0.1216,0.1123,0.1123,0.1123,0,0,0.0727,0.0737,0.0754,0.0769,0.0792,0.0814,0.0825,0.0854,0.0882,0.0895,0.0985,0.1026,0.1043,0.1106,0.1138,0.1116,0.1215,0.12,0.1206,0.1222,0.1212,0.1221,0.1229,0.1125,0.1125,0.1124,0,0,0.0738,0.076,0.0784,0.0799,0.0826,0.0833,0.0848,0.0896,0.0932,0.0997,0.1023,0.1082,0.1165,0.1176,0.119,0.1254,0.1262,0.1299,0.1352,0.1344,0.1352,0.1358,0.135,0.1355,0.1297,0.1297,0.1297,0,0.0749,0.0767,0.0789,0.0813,0.0837,0.0849,0.088,0.0902,0.0963,0.1005,0.1041,0.1176,0.1192,0.1236,0.1281,0.1274,0.1282,0.1312,0.1354,0.136,0.1365,0.1355,0.136,0.1301,0.13,0.13,0.13,0,0.0769,0.0796,0.0813,0.0849,0.088,0.0896,0.0933,0.0983,0.105,0.1091,0.1197,0.1228,0.132,0.1333,0.1339,0.1401,0.1399,0.1367,0.1326,0.1379,0.1365,0.1368,0.1306,0.1305,0.1304,0.1303,0,0,0.0766,0.0814,0.0829,0.0864,0.0899,0.0934,0.0981,0.103,0.1089,0.1179,0.1269,0.1346,0.1417,0.1436,0.1452,0.1445,0.149,0.1452,0.145,0.144,0.1499,0.1394,0.1387,0.1483,0.1484,0.1485,0.1473,0,0.0772,0.0825,0.0848,0.0917,0.0953,0.099,0.1028,0.1088,0.1166,0.1258,0.1302,0.1417,0.1434,0.1521,0.1516,0.1515,0.1506,0.1498,0.1455,0.1453,0.1349,0.1389,0.1489,0.1476,0.1476,0.1477,0.1477,0,0.078,0.0821,0.0894,0.096,0.0984,0.1053,0.1157,0.1187,0.1274,0.1356,0.1471,0.1527,0.16,0.1589,0.1603,0.1616,0.1587,0.1545,0.1543,0.1427,0.1355,0.1413,0.1483,0.1483,0.1483,0.1482,0.1482,0,0.0778,0.085,0.0916,0.0946,0.1024,0.1114,0.1174,0.1266,0.1317,0.1473,0.1552,0.1632,0.172,0.1693,0.166,0.167,0.1611,0.1595,0.1449,0.1441,0.1509,0.1502,0.1569,0.1569,0.157,0.157,0.157,0,0.0745,0.0814,0.0957,0.1005,0.1109,0.1183,0.1305,0.1373,0.1484,0.1518,0.1648,0.1663,0.1762,0.1734,0.1677,0.1579,0.1634,0.1474,0.1434,0.1537,0.1534,0.1511,0.1504,0.1569,0.1569,0.1569,0.1569,0,0.0707,0.0789,0.0879,0.1034,0.1116,0.1212,0.1398,0.1432,0.158,0.1636,0.1706,0.1768,0.1728,0.1722,0.1663,0.161,0.1503,0.1431,0.1547,0.1512,0.1342,0.1339,0.132,0.1317,0.1314,0.1311,0.1309,0,0.0678,0.0726,0.0915,0.0998,0.11,0.1272,0.1328,0.1491,0.1504,0.1612,0.157,0.1643,0.164,0.1468,0.1481,0.1396,0.135,0.1358,0.1367,0.1355,0.1319,0.1321,0.1322,0.1304,0.1303,0.1302,0.1301,0,0.0625,0.0709,0.078,0.0939,0.1074,0.1145,0.1266,0.1287,0.1375,0.1539,0.1447,0.1454,0.1383,0.1344,0.1321,0.1224,0.1406,0.1325,0.1332,0.134,0.1334,0.1302,0.1307,0.129,0.1292,0.1293,0.1293,0,0.0592,0.0612,0.0721,0.0852,0.0998,0.0999,0.1059,0.1069,0.1124,0.1253,0.1189,0.1207,0.1303,0.1242,0.1154,0.114,0.1133,0.1145,0.1161,0.1174,0.1136,0.1107,0.0968,0,0,0,0,0,0.0544,0.0554,0.0632,0.0739,0.0858,0.0934,0.0983,0.1003,0.1113,0.101,0.1128,0.1034,0.1025,0.1013,0.0963,0.1071,0.112,0.1015,0.1138,0.1229,0.1242,0.1212,0,0,0,0,0,0,0.051,0.0569,0.0579,0.0645,0.0701,0.076,0.0782,0.0802,0.0743,0.0883,0.0832,0.1027,0.0962,0.1047,0.0963,0.0975,0.1043,0.1074,0.1073,0.1222,0.1234,0.1244,0.1218,0,0,0,0,0]},{"header":{"parameterUnit":"m.s-1","parameterCategory":2,"la1":30.2991,"la2":30.254,"lo1":-89.0895,"lo2":-89.0444,"dy":0.0017,"dx":0.0017,"nx":28,"ny":28,"refTime":"2024-06-30T03:00:00:Z","depth":"4","parameterNumber":3,"parameterNumberName":"V-component_of_CURRENTS"},"data":[0,0,0,0,0,0,0,0,0,0,0,0,0,0,0,0,0,0,0,0,0,0,0,0,0,0,0,0,0,0,0,0,0,0,0,0,0,0,0,0,0,0,0,0,0,0,0,0,0,0,0,0,0,0,0,0,0,0,-0.0204,-0.0204,0,-0.0248,-0.0248,-0.0249,-0.0282,-0.0282,-0.0282,-0.0282,-0.035,-0.0352,-0.0354,0,0,0,0,0,0,0,0,0,0,0,0,0,-0.0192,-0.0192,-0.0204,-0.0204,-0.0204,-0.0247,-0.0248,-0.0249,-0.0282,-0.0282,-0.0282,-0.0282,-0.035,-0.0352,-0.0354,0,0,0,0,0,0,0,0,0,0,0,0,0,-0.0216,-0.0192,-0.0204,-0.0224,-0.0226,-0.0247,-0.0248,-0.0249,-0.0282,-0.0282,-0.0282,-0.0282,-0.0349,-0.0352,-0.0354,-0.037,0,0,-0.0362,-0.0364,0,0,0,0,0,0,0,0,-0.0214,-0.0216,-0.022,-0.0222,-0.0225,-0.0257,-0.0269,-0.029,-0.0282,-0.0264,-0.0282,-0.0282,-0.0319,-0.0324,-0.0336,-0.0373,-0.0376,-0.0363,-0.0364,-0.0365,-0.0366,0,0,0,0,0,0,0,-0.0212,-0.0215,-0.0224,-0.0221,-0.0223,-0.0245,-0.0249,-0.0274,-0.0293,-0.0265,-0.0267,-0.0267,-0.0321,-0.0334,-0.0338,-0.0377,-0.0363,-0.0365,-0.0367,-0.0368,-0.0501,-0.0502,0,0,0,0,0,0,-0.0199,-0.0213,-0.0223,-0.0225,-0.0216,-0.0245,-0.0249,-0.0249,-0.0293,-0.0298,-0.0267,-0.0268,-0.0329,-0.0335,-0.0341,-0.0405,-0.0365,-0.0368,-0.0369,-0.0499,-0.0501,-0.0503,0,0,0,0,0,0,-0.0198,-0.0199,-0.0221,-0.0218,-0.0222,-0.0245,-0.0245,-0.025,-0.0273,-0.0293,-0.03,-0.0286,-0.0329,-0.0337,-0.0367,-0.0406,-0.0369,-0.0372,-0.0496,-0.0499,-0.0502,-0.0506,0,0,0,0,0,0,-0.0198,-0.0199,-0.0205,-0.0217,-0.0221,-0.0232,-0.0244,-0.025,-0.0271,-0.0273,-0.0311,-0.0317,-0.033,-0.0363,-0.037,-0.0409,-0.0374,-0.0494,-0.0498,-0.0501,-0.0504,-0.0509,-0.0513,0,0,0,0,0,-0.0197,-0.0199,-0.0205,-0.0207,-0.0226,-0.0232,-0.0237,-0.0255,-0.0271,-0.0278,-0.0306,-0.0317,-0.0392,-0.0366,-0.0374,-0.0415,-0.0492,-0.0497,-0.0501,-0.0501,-0.0508,-0.0513,0,0,0,0,0,0,-0.0195,-0.0202,-0.021,-0.0213,-0.0222,-0.0236,-0.0249,-0.0262,-0.0291,-0.03,-0.0324,-0.0332,-0.0392,-0.0397,-0.0367,-0.0468,-0.0452,-0.0458,-0.045,-0.0456,-0.046,-0.0437,-0.0376,0,0,0,0,0,-0.0197,-0.0201,-0.0209,-0.0211,-0.0219,-0.0238,-0.0249,-0.0258,-0.0278,-0.0292,-0.0329,-0.037,-0.0416,-0.0425,-0.0473,-0.0501,-0.049,-0.0541,-0.0545,-0.0549,-0.0538,-0.0545,-0.0548,-0.0517,-0.0517,-0.0517,0,0,-0.0201,-0.02,-0.0207,-0.0212,-0.0226,-0.023,-0.0246,-0.0259,-0.0266,-0.0295,-0.034,-0.0399,-0.0434,-0.0485,-0.0511,-0.0486,-0.0555,-0.0555,-0.0557,-0.0544,-0.055,-0.0552,-0.0554,-0.052,-0.052,-0.0519,0,0,-0.0193,-0.0208,-0.0207,-0.0214,-0.0225,-0.0233,-0.0238,-0.0269,-0.0289,-0.033,-0.0371,-0.043,-0.0498,-0.0524,-0.0544,-0.0598,-0.0598,-0.0641,-0.0621,-0.0628,-0.0629,-0.063,-0.0618,-0.0617,-0.062,-0.062,-0.062,0,-0.0193,-0.0188,-0.0208,-0.0206,-0.0208,-0.0233,-0.0231,-0.0252,-0.0293,-0.031,-0.0346,-0.0472,-0.0512,-0.055,-0.0586,-0.0607,-0.0606,-0.059,-0.063,-0.0631,-0.0632,-0.0618,-0.0618,-0.0621,-0.0621,-0.0621,-0.062,0,-0.0181,-0.0183,-0.0184,-0.0186,-0.0198,-0.0196,-0.022,-0.0248,-0.0292,-0.032,-0.0402,-0.0469,-0.053,-0.0578,-0.0601,-0.0643,-0.0641,-0.0649,-0.0603,-0.0634,-0.0619,-0.0619,-0.0622,-0.0621,-0.0621,-0.0621,0,0,-0.0146,-0.0168,-0.0166,-0.0166,-0.0183,-0.0185,-0.0204,-0.0219,-0.0227,-0.0317,-0.0341,-0.0461,-0.0514,-0.0541,-0.0594,-0.0611,-0.0635,-0.0636,-0.0636,-0.0602,-0.0641,-0.0608,-0.0604,-0.0653,-0.0653,-0.0654,-0.0625,0,-0.012,-0.0108,-0.0129,-0.0123,-0.0119,-0.015,-0.0155,-0.0182,-0.0228,-0.0266,-0.0348,-0.0405,-0.0489,-0.0527,-0.0567,-0.0634,-0.0636,-0.0641,-0.0635,-0.0634,-0.0582,-0.0603,-0.0654,-0.0625,-0.0625,-0.0625,-0.0624,0,-0.0089,-0.0081,-0.007,-0.0078,-0.008,-0.0088,-0.01,-0.0109,-0.0158,-0.0199,-0.0275,-0.0338,-0.041,-0.0466,-0.056,-0.0565,-0.0601,-0.0639,-0.0638,-0.0601,-0.06,-0.0592,-0.0623,-0.0623,-0.0623,-0.0624,-0.0624,0,-0.0038,-0.0039,-0.0024,-0.0028,-0.0042,-0.0051,-0.0064,-0.0099,-0.009,-0.0155,-0.0165,-0.027,-0.0302,-0.0396,-0.0502,-0.0531,-0.0578,-0.0614,-0.0601,-0.0598,-0.0631,-0.063,-0.0637,-0.0637,-0.0637,-0.0637,-0.0637,0,0.0009,0.0017,-0.0004,0.0003,0.0024,-0.0012,-0.0002,-0.0028,-0.0042,-0.002,-0.0128,-0.014,-0.0287,-0.034,-0.0457,-0.0527,-0.0534,-0.0593,-0.059,-0.0636,-0.0636,-0.063,-0.063,-0.0636,-0.0636,-0.0637,-0.0637,0,0.0049,0.0041,0.0056,0.0045,0.0045,0.005,0.0049,0.0068,0.0041,0.0068,0.006,-0.002,-0.0112,-0.0232,-0.0353,-0.0428,-0.052,-0.0523,-0.0537,-0.0537,-0.0546,-0.0547,-0.0522,-0.0521,-0.0519,-0.0518,-0.0518,0,0.0062,0.0079,0.0088,0.0102,0.009,0.0095,0.0119,0.0106,0.0138,0.0137,0.0167,0.0105,0.0032,-0.0115,-0.0267,-0.043,-0.0455,-0.0471,-0.0551,-0.0535,-0.0535,-0.0537,-0.054,-0.0516,-0.0515,-0.0515,-0.0515,0,0.0088,0.0093,0.0106,0.0151,0.0169,0.0196,0.022,0.0254,0.0267,0.0272,0.0261,0.0166,0.0089,-0.0089,-0.018,-0.0318,-0.0466,-0.046,-0.0465,-0.054,-0.0527,-0.0529,-0.0532,-0.0511,-0.0511,-0.0512,-0.0512,0,0.0101,0.0114,0.0145,0.018,0.0228,0.0266,0.0267,0.03,0.0331,0.0347,0.0344,0.0213,0.0154,-0.0025,-0.014,-0.0247,-0.03,-0.0339,-0.0352,-0.0358,-0.0339,-0.0301,-0.0201,0,0,0,0,0,0.0112,0.013,0.0168,0.0204,0.0265,0.0284,0.0338,0.0343,0.0379,0.0396,0.0373,0.0286,0.0111,0.001,-0.0092,-0.0146,-0.033,-0.0268,-0.0383,-0.0488,-0.0493,-0.0499,0,0,0,0,0,0,0.0112,0.0152,0.0168,0.0235,0.0263,0.0323,0.0348,0.0364,0.0364,0.0381,0.0275,0.0271,0.0078,0.0165,-0.0096,-0.0129,-0.0211,-0.0345,-0.0347,-0.0486,-0.049,-0.0494,-0.0502,0,0,0,0,0]}]]